Weather History for Beckley, WV

Change the Weather History Date:

Tuesday, December 18, 2012

  Actual Average Record
Temperature  
Mean Temperature 39 °F 34 °F  
Max Temperature 44 °F 41 °F 68 °F (1924)
Min Temperature 34 °F 26 °F -9 °F (1953)
Degree Days  
Heating Degree Days 26 32  
Month to date heating degree days 340 528  
Since 1 July heating degree days 1594 1668  
Cooling Degree Days 0 0  
Month to date cooling degree days 0 0  
Year to date cooling degree days 761 557  
Moisture  
Dew Point 36 °F    
Average Humidity 83    
Maximum Humidity 96    
Minimum Humidity 70    
Precipitation  
Precipitation 0.16 in 0.09 in 0.91 in (1961)
Month to date precipitation 1.55 1.77  
Year to date precipitation 42.73 39.96  
Snow  
Snow 0.00 in - - ()
Month to date snowfall 0.0  
Since 1 September snowfall 22.9  
Snow Depth 0.00 in    
Sea Level Pressure  
Sea Level Pressure 29.76 in    
Wind  
Wind Speed 10 mph (West)    
Max Wind Speed 22 mph    
Max Gust Speed 29 mph    
Visibility 10 miles    
Events Rain    
T = Trace of Precipitation, MM = Missing Value Source: NWS Daily Summary

Daily Weather History Graph

Daily Weather History Graph

Search for Another Location

Airport:

Trip Planner

Search our weather history database for the weather conditions in past years. The results will help you decide how hot, cold, wet, or windy it might be!

Date:

Astronomy

Dec. 18, 2012 Rise Set
Actual Time 7:34 AM EST 5:07 PM EST
Civil Twilight 7:05 AM EST 5:37 PM EST
Nautical Twilight 6:32 AM EST 6:10 PM EST
Astronomical Twilight 6:00 AM EST 6:42 PM EST
Moon 11:19 AM EST (12/18) 11:26 PM EST (12/18)
Length of Visible Light 10h 31m
Length of Day
9h 33m
Waxing Crescent, 34% of the Moon is Illuminated
Dec 18
Waxing Crescent
Dec 20
First Quarter
Dec 28
Full
Jan 4
Last Quarter
Jan 11
New

Hourly Weather History & Observations

Time (EST) Temp. Windchill Dew Point Humidity Pressure Visibility Wind Dir Wind Speed Gust Speed Precip Events Conditions
12:51 AM 44.1 °F 39.0 °F 39.9 °F 85% 29.62 in 10.0 mi SW 9.2 mph - N/A   Clear
1:51 AM 44.1 °F 39.5 °F 39.9 °F 85% 29.63 in 10.0 mi WSW 8.1 mph 17.3 mph N/A   Mostly Cloudy
2:51 AM 43.0 °F 38.2 °F 39.0 °F 86% 29.64 in 10.0 mi West 8.1 mph - N/A   Partly Cloudy
3:14 AM 44.6 °F 41.4 °F 39.2 °F 81% 29.63 in 10.0 mi West 5.8 mph - N/A   Mostly Cloudy
3:51 AM 44.1 °F 39.0 °F 39.9 °F 85% 29.63 in 10.0 mi West 9.2 mph - N/A   Overcast
4:33 AM 42.8 °F 39.3 °F 39.2 °F 87% 29.61 in 10.0 mi West 5.8 mph - 0.00 in Rain Light Rain
4:42 AM 42.8 °F 37.5 °F 39.2 °F 87% 29.62 in 10.0 mi West 9.2 mph - 0.00 in   Mostly Cloudy
4:51 AM 43.0 °F 39.5 °F 39.9 °F 89% 29.63 in 10.0 mi West 5.8 mph - 0.00 in   Mostly Cloudy
5:03 AM 42.8 °F 37.5 °F 41.0 °F 93% 29.63 in 6.0 mi West 9.2 mph - 0.00 in Rain Light Rain
5:51 AM 43.0 °F 38.8 °F 41.0 °F 93% 29.65 in 9.0 mi WSW 6.9 mph - 0.06 in   Overcast
6:41 AM 42.8 °F 41.1 °F 39.2 °F 87% 29.65 in 10.0 mi West 3.5 mph - 0.03 in   Overcast
6:51 AM 42.8 °F 39.3 °F 39.2 °F 87% 29.66 in 10.0 mi West 5.8 mph - N/A   Overcast
6:59 AM 42.8 °F 38.0 °F 39.2 °F 87% 29.66 in 10.0 mi West 8.1 mph - N/A   Overcast
7:51 AM 42.1 °F 36.6 °F 37.9 °F 85% 29.69 in 9.0 mi West 9.2 mph - 0.00 in Rain Light Rain
8:06 AM 41.0 °F 35.2 °F 37.4 °F 87% 29.69 in 4.0 mi WNW 9.2 mph 17.3 mph 0.01 in Rain Rain
8:17 AM 41.0 °F 34.3 °F 37.4 °F 87% 29.70 in 7.0 mi NW 11.5 mph 20.7 mph 0.03 in Rain Light Rain
8:51 AM 39.9 °F 33.4 °F 37.0 °F 89% 29.73 in 10.0 mi West 10.4 mph - 0.04 in Rain Light Rain
9:01 AM 39.2 °F 32.5 °F 37.4 °F 93% 29.72 in 10.0 mi WNW 10.4 mph - 0.01 in Rain Light Rain
9:08 AM 39.2 °F 34.2 °F 37.4 °F 93% 29.72 in 10.0 mi WNW 6.9 mph - 0.01 in Rain Light Rain
9:51 AM 39.9 °F 34.5 °F 37.0 °F 89% 29.77 in 10.0 mi WNW 8.1 mph - 0.01 in   Overcast
10:02 AM 39.2 °F 32.5 °F 37.4 °F 93% 29.74 in 10.0 mi WNW 10.4 mph 18.4 mph N/A   Overcast
10:36 AM 39.2 °F 31.6 °F 37.4 °F 93% 29.76 in 9.0 mi WNW 12.7 mph 19.6 mph 0.00 in Rain Light Rain
10:51 AM 39.9 °F 31.8 °F 36.0 °F 86% 29.79 in 10.0 mi WNW 15.0 mph 23.0 mph 0.01 in   Overcast
11:51 AM 39.0 °F 29.6 °F 35.1 °F 86% 29.81 in 10.0 mi West 18.4 mph 26.5 mph 0.00 in   Overcast
12:36 PM 39.2 °F 32.0 °F 35.6 °F 87% 29.79 in 10.0 mi WNW 11.5 mph - N/A   Overcast
12:51 PM 39.2 °F 30.8 °F 33.8 °F 81% 29.79 in 10.0 mi WNW 15.0 mph 20.7 mph N/A   Overcast
1:07 PM 39.2 °F 31.2 °F 35.6 °F 87% 29.79 in 10.0 mi WNW 13.8 mph 19.6 mph 0.00 in Rain Light Rain
1:15 PM 37.4 °F 29.3 °F 35.6 °F 93% 29.79 in 10.0 mi WNW 12.7 mph 19.6 mph 0.00 in Rain Light Rain
1:22 PM 37.4 °F 30.3 °F 33.8 °F 87% 29.79 in 7.0 mi WNW 10.4 mph 19.6 mph 0.00 in Rain Light Rain
1:35 PM 37.4 °F 28.2 °F 33.8 °F 87% 29.79 in 10.0 mi WNW 16.1 mph - 0.00 in   Overcast
1:43 PM 37.4 °F 29.3 °F 33.8 °F 87% 29.80 in 10.0 mi WNW 12.7 mph 19.6 mph 0.00 in   Overcast
1:51 PM 37.9 °F 28.5 °F 34.0 °F 86% 29.83 in 10.0 mi West 17.3 mph 25.3 mph 0.00 in Rain Light Rain
2:23 PM 37.4 °F 29.8 °F 33.8 °F 87% 29.81 in 10.0 mi West 11.5 mph - 0.01 in   Overcast
2:37 PM 37.4 °F 29.8 °F 33.8 °F 87% 29.81 in 10.0 mi WNW 11.5 mph 19.6 mph 0.01 in Rain Light Rain
2:51 PM 37.0 °F 28.9 °F 34.0 °F 89% 29.85 in 10.0 mi West 12.7 mph 18.4 mph 0.01 in Rain Light Rain
3:51 PM 37.0 °F 29.3 °F 33.1 °F 86% 29.87 in 10.0 mi WNW 11.5 mph 19.6 mph 0.00 in   Overcast
4:51 PM 37.0 °F 30.4 °F 33.1 °F 86% 29.89 in 10.0 mi West 9.2 mph - N/A   Overcast
5:51 PM 36.0 °F 31.1 °F 30.9 °F 82% 29.91 in 10.0 mi WNW 5.8 mph - N/A   Overcast
6:51 PM 36.0 °F 30.3 °F 30.9 °F 82% 29.93 in 10.0 mi SW 6.9 mph - N/A   Overcast
7:33 PM 35.6 °F 30.7 °F 30.2 °F 81% 29.88 in 10.0 mi SSW 5.8 mph - N/A   Scattered Clouds
7:51 PM 34.0 °F 29.8 °F 30.0 °F 85% 29.92 in 10.0 mi SW 4.6 mph - N/A   Clear
8:51 PM 34.0 °F 28.0 °F 30.9 °F 89% 29.90 in 10.0 mi South 6.9 mph - N/A   Scattered Clouds
9:51 PM 36.0 °F 30.3 °F 30.0 °F 79% 29.88 in 10.0 mi SSW 6.9 mph - N/A   Clear
10:51 PM 37.0 °F 30.4 °F 28.9 °F 73% 29.87 in 10.0 mi SSW 9.2 mph - N/A   Partly Cloudy
11:51 PM 36.0 °F 29.6 °F 28.9 °F 76% 29.88 in 10.0 mi West 8.1 mph - N/A   Mostly Cloudy